Fort Myers, FL

10:57 AM EST on February 20, 2018 (GMT -0500)
Page

Weather History for KFMY - July, 2012

Change the Weather History Date:

Tuesday, July 24, 2012

  Actual Average Record
Temperature  
Mean Temperature 84 °F 83 °F  
Max Temperature 91 °F 92 °F 96 °F (1986)
Min Temperature 76 °F 75 °F 69 °F (1910)
Degree Days  
Heating Degree Days 0 0  
Month to date heating degree days 0 0  
Since 1 June heating degree days 0 0  
Since 1 July heating degree days 0 0  
Cooling Degree Days 19 18  
Month to date cooling degree days 446 432  
Year to date cooling degree days 2408 2023  
Since 1 June cooling degree days 970 957  
Growing Degree Days 33 (Base 50)    
Moisture  
Dew Point 73 °F    
Average Humidity 72    
Maximum Humidity 87    
Minimum Humidity 52    
Precipitation  
Precipitation T in 0.29 in 2.60 in (1938)
Month to date precipitation 9.14 7.01  
Year to date precipitation 26.87 28.90  
Sea Level Pressure  
Sea Level Pressure 30.10 in    
Wind  
Wind Speed 4 mph (South)    
Max Wind Speed 16 mph    
Max Gust Speed 20 mph    
Visibility 10 miles    
Events Rain , Thunderstorm    
T = Trace of Precipitation, MM = Missing Value Source: NWS Daily Summary

Daily Weather History Graph

Daily Weather History Graph

Search for Another Location

Airport or City:

Trip Planner

Search our weather history database for the weather conditions in past years. The results will help you decide how hot, cold, wet, or windy it might be!

Date:

Astronomy

Jul. 24, 2012 Rise Set
Actual Time 6:48 AM EDT 8:19 PM EDT
Civil Twilight 6:23 AM EDT 8:44 PM EDT
Nautical Twilight 5:52 AM EDT 9:14 PM EDT
Astronomical Twilight 5:21 AM EDT 9:46 PM EDT
Moon 12:03 PM EDT (7/24) 11:50 PM EDT (7/24)
Length of Visible Light 14h 21m
Length of Day
13h 30m
Waxing Crescent, 31% of the Moon is Illuminated
Jul 24
Waxing Crescent
Jul 26
First Quarter
Aug 1
Full
Aug 9
Last Quarter
Aug 17
New

Hourly Weather History & Observations

Time (EDT) Temp. Heat Index Dew Point Humidity Pressure Visibility Wind Dir Wind Speed Gust Speed Precip Events Conditions
12:53 AM 77.0 °F - 72.0 °F 84% 30.14 in 10.0 mi Calm Calm - N/A   Clear
1:53 AM 77.0 °F - 72.0 °F 84% 30.12 in 10.0 mi Calm Calm - N/A   Clear
2:53 AM 75.9 °F - 72.0 °F 87% 30.11 in 10.0 mi Calm Calm - N/A   Clear
3:53 AM 75.9 °F - 72.0 °F 87% 30.10 in 10.0 mi East 3.5 mph - N/A   Clear
4:53 AM 75.9 °F - 72.0 °F 87% 30.11 in 10.0 mi SE 4.6 mph - N/A   Clear
5:53 AM 75.9 °F - 72.0 °F 87% 30.12 in 10.0 mi SE 3.5 mph - N/A   Clear
6:53 AM 75.9 °F - 72.0 °F 87% 30.13 in 10.0 mi Calm Calm - N/A   Clear
7:53 AM 78.1 °F - 73.9 °F 87% 30.14 in 10.0 mi SE 3.5 mph - N/A   Clear
8:53 AM 80.1 °F 85.4 °F 75.9 °F 87% 30.15 in 10.0 mi SE 3.5 mph - N/A   Clear
9:53 AM 84.0 °F 93.7 °F 77.0 °F 79% 30.15 in 10.0 mi SSE 5.8 mph - N/A   Clear
10:53 AM 88.0 °F 98.5 °F 75.9 °F 67% 30.14 in 10.0 mi SSW 3.5 mph - N/A   Partly Cloudy
11:53 AM 88.0 °F 96.5 °F 73.9 °F 63% 30.13 in 10.0 mi SW 5.8 mph - N/A   Mostly Cloudy
12:53 PM 90.0 °F 97.9 °F 73.0 °F 57% 30.13 in 10.0 mi WSW 9.2 mph - N/A   Partly Cloudy
1:53 PM 90.0 °F 101.3 °F 75.9 °F 63% 30.11 in 10.0 mi WSW 8.1 mph - N/A   Mostly Cloudy
2:24 PM 87.8 °F 95.6 °F 73.4 °F 62% 30.10 in 10.0 mi WNW 11.5 mph - 0.00 in Rain , Thunderstorm Light Rain
2:42 PM 89.6 °F 98.2 °F 73.4 °F 59% 30.09 in 10.0 mi West 9.2 mph - 0.00 in   Scattered Clouds
2:53 PM 89.1 °F 98.0 °F 73.9 °F 61% 30.10 in 10.0 mi West 10.4 mph - 0.00 in   Clear
3:53 PM 89.1 °F 96.0 °F 72.0 °F 57% 30.07 in 10.0 mi West 10.4 mph - N/A   Clear
4:53 PM 90.0 °F 96.9 °F 72.0 °F 55% 30.06 in 10.0 mi NW 5.8 mph - N/A   Clear
5:53 PM 91.0 °F 97.6 °F 71.1 °F 52% 30.06 in 10.0 mi Calm Calm - N/A   Partly Cloudy
6:53 PM 87.1 °F 94.5 °F 73.0 °F 63% 30.04 in 10.0 mi SE 6.9 mph - N/A   Clear
7:53 PM 86.0 °F 93.0 °F 73.0 °F 65% 30.05 in 10.0 mi East 4.6 mph - N/A   Clear
8:53 PM 84.0 °F 90.2 °F 73.0 °F 69% 30.05 in 10.0 mi South 4.6 mph - N/A   Clear
9:53 PM 82.9 °F 88.0 °F 72.0 °F 69% 30.05 in 10.0 mi Calm Calm - N/A   Clear
10:53 PM 81.0 °F 86.2 °F 73.9 °F 79% 30.07 in 10.0 mi ESE 3.5 mph - N/A   Clear
11:53 PM 81.0 °F 86.7 °F 75.0 °F 82% 30.07 in 10.0 mi Calm Calm - N/A   Clear